Showing default

ICO G-1, 32763

Orbit data source: Space-Track

ICO G-1, 32763 is a payload satellite owned by ICO North America (US) in GEO that was launched on Mon, 14 Apr 2008 UTC via an ATLAS V 421 launch vehicle from the Air Force Eastern Test Range (AFETR). Payload-class satellites include a variety of spacecraft equipped with specific instruments for various scientific and technological missions. These include communications satellites like Starlink; space stations such as the ISS; scientific satellites like the Hubble; Earth observation satellites from companies like Planet Labs, Umbra, and HawkEye 360; GPS; miniature CubeSats for education and research; and military/defense satellites.

Loading next visibility...
Identifier
32763, 2008-016A
Orbit
GEO
Last TLE update
11 hours ago
Origin
Manufacturer
SS/Loral
Mission
Operational Commercial Communications
Bus & Motor
SSL-1300, R-4D-15-300
Mass
6,600 kg wet, ~3,000 kg dry
Launch date (UTC)
2008-04-14 (17 years ago)
Launch vehicle
ATLAS V 421
Launch site
Air Force Eastern Test Range (AFETR)
Object type
Payload
Rocket body
Debris
Shape & HBR
Box + 2 Pan, Unknown HBR
Radar Cross Section
50.806 m², Large (>1 m²)

Expand to show TLE details & history

TLE from 11 hours ago
0 ICO G-1
1 32763U 08016A   25133.14734584 -.00000158  00000-0  00000+0 0  9990
2 32763   5.4187  36.8227 0002206   5.1459 149.3764  1.00272457 62459
Epoch: 2025-05-13T03:32Z
Definitive object data (Epoch: 2025-05-13T03:32:10.68Z)
Latitude
2.30789°
Longitude
-92.74154°
Altitude
35,793.676 km
Speed
3.074 km/s
True Right ascension
12h 45m 48s
True Declination
2° 18' 20"
Sunlit
Object was in daylight at TLE epoch
Visualization TLE readout
Latitude
-3.50363°
Longitude
72.2209°
Altitude
35,779.942 km
Speed
3.075 km/s
Apparent Right ascension
23h 52m 06s
Apparent Declination
-10° 05' 54"
Sunlit
Object is in daylight
Visualization observer readout
Local Sidereal Time
22:56:10
Azimuth
162.347° S
Elevation
38.332°
Doppler factor
1
Orbital elements
Apogee altitude
35,796.765 km
Perigee altitude
35,778.161 km
Semi-major axis
42,165.6 km
Eccentricity
0.0002206
Inclination
5.4187°
RAAN
36.8227°
Arg. of periapsis
5.1459°
True anomaly
149.38927°
Mean anomaly
149.3764°
Eccentric anomaly
149.38284°
Mean motion
0.25067 °/min
BSTAR
Unknown
Orbital period
1436.14 mins
Loading historical data...
32763 neighbors
Loading maneuver chart data...
Loading SW <> Apogee altitude chart data...
Loading historical data...
Loading historical data...
Loading historical data...
Loading historical data...
Loading historical data...
Loading historical data...
Loading historical data...
Other satellites on launch #16 in the year 2008 (2008-04-14 UTC)

ICO G-1 Visibility forecast

Observer location: undefined°, undefined°

Span
Click to sort rows by Start time (UTC) header in descending order
Start Az.
Max El. time (UTC)
Max El. Az.
Max El.
End time (UTC)
End Az.
1440 mins2025-05-13 14:30:15.028Z162.353° S2025-05-13 23:10:15.028Z158.981° S36.605°2025-05-14 14:30:15.028Z162.329° S
|